SCP
0 0 0 0 0 0 0 0 0 0 0 0 0 0 0 0 0 0 0 0 0 0 0 0 0 0 0 0 0 0 0 0
0 0 0 0 0 0 0 0 -0 -0 0 0 0 0 0 0 0 0 0 0 0 0 0 0 0 0 0 0 0 0 0 0
0 0 0 0 0 0 -0 -0 0 -0 -0 0 0 0 0 0 0 0 0 0 0 0 0 0 0 0 0 0 0 0 0 0
0 0 0 0 0 0 0 0 0 -0 0 0 0 0 0 0 0 0 0 0 0 0 0 0 0 0 0 0 0 0 0 0
0 0 0 0 0 0 -0 0 0 -0 -0 0 0 -0 0 0 0 0 0 0 0 0 0 0 0 0 0 0 0 0 0 0
0 0 0 0 0 0 0 -0 -0 0 0 0 -0 0 0 -0 0 0 0 0 0 0 0 0 0 0 0 0 0 0 0 0
0 0 0 0 0 0 0 0 0 0 0 -0 -0 -0 -0 0 0 0 0 0 0 0 0 0 0 0 0 0 0 0 0 0
0 0 0 0 0 0 0 0 0 0 -0 -0 -0 -0 -0 -0 0 0 0 0 0 0 0 0 0 0 0 0 0 0 0 0
0 0 0 0 0 0 0 0 0 0 0 -0 -0 -0 -0 -0 0 0 0 0 0 0 0 0 0 0 -0 -0 0 0 0 0
0 0 0 0 0 0 0 0 0 0 0 0 0 0 0 -0 -0 -0 0 0 0 0 0 0 0 -0 -0 0 0 0 0 0
0 0 0 0 0 0 0 0 0 0 0 0 0 0 0 0 -0 -0 -0 -0 0 0 0 0 0 0 -0 0 0 0 0 -0
0 0 0 0 0 0 0 0 0 0 0 0 0 0 0 0 0 0 -0 -0 0 0 0 -0 -0 -0 -0 -0 0 -0 -0 -0
0 0 0 0 0 0 0 0 0 0 0 0 0 0 0 0 0 0 0 0 0 0 0 -0 -0 -0 -0 -0 -0 -0 -0 -0
0 0 0 0 0 0 0 0 0 0 0 0 0 0 0 0 0 0 0 0 -0 -0 -0 0 -0 -0 0 -0 0 0 -0 -0
0 0 0 0 0 0 0 0 0 0 0 0 0 0 0 0 0 -0 0 -0 -0 -0 -0 -0 -0 -0 -0 -0 0 -0 -0 0
0 0 0 0 0 0 0 0 0 0 0 0 0 0 0 0 0 0 0 0 0 0 0 0 -0 -0 0 0 0 0 0 0
0 0 0 0 0 0 0 0 0 0 0 0 0 0 0 0 0 0 0 0 0 -0 0 0 0 0 0 0 0 -0 -0 0
0 0 0 0 0 0 0 0 0 0 0 0 0 0 0 0 0 0 0 0 0 0 0 0 0 0 0 0 0 0 0 0
0 0 0 0 0 0 0 0 0 0 0 0 0 0 0 0 0 0 0 0 0 0 0 0 0 0 0 0 0 0 0 0
0 0 0 0 0 0 0 0 0 0 0 0 0 0 0 0 0 0 0 0 0 0 0 0 0 0 0 0 0 0 0 0
Wind_Speed_500mb
20 22 24 25 25 25 23 18 18 14 13 14 14 13 12 11 19 24 27 30 30 26 31 24 20 26 26 19 24 23 20 20
24 20 19 21 23 22 22 21 15 14 14 15 14 11 12 12 13 19 25 31 29 30 22 21 18 16 19 20 16 20 17 19
27 22 20 18 18 18 19 17 14 12 17 16 16 13 11 9 8 8 17 22 24 26 28 22 24 23 12 17 21 14 14 14
23 22 21 18 16 13 11 11 13 7 15 16 18 19 15 12 7 3 5 16 19 17 22 21 21 23 22 14 15 15 13 12
26 21 19 20 19 17 14 13 14 10 14 15 15 17 18 17 15 14 13 16 19 19 20 23 25 18 14 19 13 12 14 11
19 20 19 20 21 17 13 10 8 7 11 13 15 17 17 19 19 21 20 22 22 22 19 18 15 13 17 11 11 12 9 9
13 17 16 18 19 16 10 7 5 7 9 15 17 18 18 18 17 22 21 21 23 24 23 19 15 15 17 16 15 14 8 5
7 11 14 16 16 15 10 6 12 8 8 12 14 14 15 16 16 18 19 17 16 16 16 17 16 17 19 19 17 9 6 9
8 5 9 10 10 10 5 8 10 8 8 7 7 5 9 12 15 16 15 17 13 19 21 18 20 19 16 13 10 7 9 7
8 3 5 8 10 7 4 5 9 8 4 5 6 5 6 8 10 11 12 14 16 15 15 13 16 14 14 12 15 13 14 16
8 5 2 3 6 9 8 8 6 6 4 3 6 6 7 9 9 8 11 14 17 14 12 16 14 10 16 17 16 17 14 15
7 6 5 2 4 5 8 7 13 12 8 4 2 4 2 2 5 6 14 13 14 13 10 10 13 14 15 15 18 18 17 18
9 9 9 8 7 7 5 13 12 14 15 13 10 8 9 8 10 10 12 16 16 18 17 14 15 16 16 16 17 21 21 21
15 16 15 12 11 10 11 14 15 16 17 18 17 15 14 13 14 16 18 19 19 22 23 21 20 21 21 22 23 24 25 27
25 22 22 20 19 12 21 22 20 20 21 23 22 21 19 19 19 22 23 24 25 24 25 25 26 27 25 24 23 25 26 28
30 29 25 26 25 25 27 31 30 28 29 30 29 28 27 24 25 25 26 27 26 23 25 24 23 21 25 25 25 26 28 31
31 36 32 32 30 33 36 40 41 41 39 37 36 34 34 33 32 31 33 32 32 34 30 31 32 34 33 34 35 37 38 38
34 31 33 37 34 34 42 48 51 51 47 47 46 45 43 44 43 39 37 40 38 38 36 37 37 40 39 41 43 45 45 46
36 38 40 44 44 37 45 49 52 58 59 57 56 56 53 52 50 49 48 48 44 43 44 43 44 46 47 48 51 55 56 54
49 47 47 52 50 39 44 51 56 56 61 65 63 63 63 62 61 61 60 58 54 50 50 48 50 52 55 57 63 63 63 60
Wind_Direction_500mb
311 324 334 341 347 351 354 352 4 7 0 2 358 348 325 286 254 240 235 230 224 224 225 225 220 221 217 225 235 239 237 228
306 313 328 337 345 349 353 357 356 1 13 16 8 3 359 329 290 246 231 225 223 218 214 219 215 213 213 218 224 238 235 243
300 305 320 329 339 345 350 354 346 13 18 23 11 16 14 358 331 277 225 206 207 214 208 209 215 223 214 208 214 207 222 216
300 302 313 321 330 339 350 354 6 56 27 30 30 28 32 32 33 69 150 173 176 183 185 191 189 182 179 186 196 195 184 207
329 315 311 320 328 336 346 6 25 47 41 42 48 46 49 53 68 80 99 124 130 156 165 176 183 167 176 179 175 189 193 187
337 324 320 318 323 333 338 0 47 68 58 59 57 66 68 74 85 99 116 124 135 151 164 157 149 159 172 177 180 179 180 185
350 330 314 313 321 325 341 0 67 107 72 75 68 67 76 81 92 102 115 134 139 145 146 157 168 183 170 170 160 156 159 192
339 333 316 316 323 329 350 52 110 121 88 77 63 69 78 89 95 107 116 131 138 141 136 150 152 158 154 159 140 122 129 142
287 320 316 314 321 329 4 111 126 103 96 47 58 74 78 82 89 108 123 129 136 148 154 156 158 166 175 180 161 217 215 205
247 294 322 321 316 323 305 214 148 137 96 45 49 77 160 117 109 112 145 151 150 147 155 168 175 193 186 177 185 212 196 180
210 211 148 286 306 308 304 278 248 186 155 63 48 74 118 181 209 217 184 163 155 142 144 185 186 184 173 159 168 187 193 179
211 209 243 249 262 275 279 287 273 271 264 239 144 119 96 135 178 177 194 193 173 176 210 201 188 182 184 178 183 181 180 174
224 231 225 235 256 253 260 264 275 274 275 272 264 231 192 194 192 197 196 206 210 215 222 214 193 191 190 186 183 179 169 174
238 240 249 256 254 252 227 251 249 263 269 270 266 258 255 225 213 203 205 209 208 206 208 208 207 197 195 192 189 187 183 183
253 251 255 260 264 257 255 267 261 258 259 263 262 256 244 243 236 223 217 214 214 214 212 209 203 203 199 200 201 201 201 200
252 252 252 254 258 253 252 260 267 264 258 257 256 256 255 249 243 236 226 223 223 220 221 219 216 212 211 213 214 213 214 214
256 256 261 259 260 261 256 258 260 259 258 260 260 258 258 252 248 245 243 240 232 224 225 222 219 221 219 221 223 224 223 221
263 259 251 256 258 261 261 258 259 260 261 260 259 257 255 256 257 252 248 245 241 243 239 233 234 235 233 232 233 234 232 229
260 261 258 259 264 265 267 267 263 262 260 258 258 258 258 259 259 259 255 252 251 247 244 244 243 243 243 241 240 239 241 238
252 257 268 277 279 268 263 267 271 267 263 262 259 259 260 258 255 256 255 254 254 250 250 247 245 245 247 247 249 250 250 250
Wind_Speed_850mb
20 22 24 25 25 25 23 18 18 14 13 14 14 13 12 11 19 24 27 30 30 26 31 24 20 26 26 19 24 23 20 20
24 20 19 21 23 22 22 21 15 14 14 15 14 11 12 12 13 19 25 31 29 30 22 21 18 16 19 20 16 20 17 19
27 22 20 18 18 18 19 17 14 12 17 16 16 13 11 9 8 8 17 22 24 26 28 22 24 23 12 17 21 14 14 14
23 22 21 18 16 13 11 11 13 7 15 16 18 19 15 12 7 3 5 16 19 17 22 21 21 23 22 14 15 15 13 12
26 21 19 20 19 17 14 13 14 10 14 15 15 17 18 17 15 14 13 16 19 19 20 23 25 18 14 19 13 12 14 11
19 20 19 20 21 17 13 10 8 7 11 13 15 17 17 19 19 21 20 22 22 22 19 18 15 13 17 11 11 12 9 9
13 17 16 18 19 16 10 7 5 7 9 15 17 18 18 18 17 22 21 21 23 24 23 19 15 15 17 16 15 14 8 5
7 11 14 16 16 15 10 6 12 8 8 12 14 14 15 16 16 18 19 17 16 16 16 17 16 17 19 19 17 9 6 9
8 5 9 10 10 10 5 8 10 8 8 7 7 5 9 12 15 16 15 17 13 19 21 18 20 19 16 13 10 7 9 7
8 3 5 8 10 7 4 5 9 8 4 5 6 5 6 8 10 11 12 14 16 15 15 13 16 14 14 12 15 13 14 16
8 5 2 3 6 9 8 8 6 6 4 3 6 6 7 9 9 8 11 14 17 14 12 16 14 10 16 17 16 17 14 15
7 6 5 2 4 5 8 7 13 12 8 4 2 4 2 2 5 6 14 13 14 13 10 10 13 14 15 15 18 18 17 18
9 9 9 8 7 7 5 13 12 14 15 13 10 8 9 8 10 10 12 16 16 18 17 14 15 16 16 16 17 21 21 21
15 16 15 12 11 10 11 14 15 16 17 18 17 15 14 13 14 16 18 19 19 22 23 21 20 21 21 22 23 24 25 27
25 22 22 20 19 12 21 22 20 20 21 23 22 21 19 19 19 22 23 24 25 24 25 25 26 27 25 24 23 25 26 28
30 29 25 26 25 25 27 31 30 28 29 30 29 28 27 24 25 25 26 27 26 23 25 24 23 21 25 25 25 26 28 31
31 36 32 32 30 33 36 40 41 41 39 37 36 34 34 33 32 31 33 32 32 34 30 31 32 34 33 34 35 37 38 38
34 31 33 37 34 34 42 48 51 51 47 47 46 45 43 44 43 39 37 40 38 38 36 37 37 40 39 41 43 45 45 46
36 38 40 44 44 37 45 49 52 58 59 57 56 56 53 52 50 49 48 48 44 43 44 43 44 46 47 48 51 55 56 54
49 47 47 52 50 39 44 51 56 56 61 65 63 63 63 62 61 61 60 58 54 50 50 48 50 52 55 57 63 63 63 60
Wind_Direction_850mb
311 324 334 341 347 351 354 352 4 7 0 2 358 348 325 286 254 240 235 230 224 224 225 225 220 221 217 225 235 239 237 228
306 313 328 337 345 349 353 357 356 1 13 16 8 3 359 329 290 246 231 225 223 218 214 219 215 213 213 218 224 238 235 243
300 305 320 329 339 345 350 354 346 13 18 23 11 16 14 358 331 277 225 206 207 214 208 209 215 223 214 208 214 207 222 216
300 302 313 321 330 339 350 354 6 56 27 30 30 28 32 32 33 69 150 173 176 183 185 191 189 182 179 186 196 195 184 207
329 315 311 320 328 336 346 6 25 47 41 42 48 46 49 53 68 80 99 124 130 156 165 176 183 167 176 179 175 189 193 187
337 324 320 318 323 333 338 0 47 68 58 59 57 66 68 74 85 99 116 124 135 151 164 157 149 159 172 177 180 179 180 185
350 330 314 313 321 325 341 0 67 107 72 75 68 67 76 81 92 102 115 134 139 145 146 157 168 183 170 170 160 156 159 192
339 333 316 316 323 329 350 52 110 121 88 77 63 69 78 89 95 107 116 131 138 141 136 150 152 158 154 159 140 122 129 142
287 320 316 314 321 329 4 111 126 103 96 47 58 74 78 82 89 108 123 129 136 148 154 156 158 166 175 180 161 217 215 205
247 294 322 321 316 323 305 214 148 137 96 45 49 77 160 117 109 112 145 151 150 147 155 168 175 193 186 177 185 212 196 180
210 211 148 286 306 308 304 278 248 186 155 63 48 74 118 181 209 217 184 163 155 142 144 185 186 184 173 159 168 187 193 179
211 209 243 249 262 275 279 287 273 271 264 239 144 119 96 135 178 177 194 193 173 176 210 201 188 182 184 178 183 181 180 174
224 231 225 235 256 253 260 264 275 274 275 272 264 231 192 194 192 197 196 206 210 215 222 214 193 191 190 186 183 179 169 174
238 240 249 256 254 252 227 251 249 263 269 270 266 258 255 225 213 203 205 209 208 206 208 208 207 197 195 192 189 187 183 183
253 251 255 260 264 257 255 267 261 258 259 263 262 256 244 243 236 223 217 214 214 214 212 209 203 203 199 200 201 201 201 200
252 252 252 254 258 253 252 260 267 264 258 257 256 256 255 249 243 236 226 223 223 220 221 219 216 212 211 213 214 213 214 214
256 256 261 259 260 261 256 258 260 259 258 260 260 258 258 252 248 245 243 240 232 224 225 222 219 221 219 221 223 224 223 221
263 259 251 256 258 261 261 258 259 260 261 260 259 257 255 256 257 252 248 245 241 243 239 233 234 235 233 232 233 234 232 229
260 261 258 259 264 265 267 267 263 262 260 258 258 258 258 259 259 259 255 252 251 247 244 244 243 243 243 241 240 239 241 238
252 257 268 277 279 268 263 267 271 267 263 262 259 259 260 258 255 256 255 254 254 250 250 247 245 245 247 247 249 250 250 250